CST,Max TemperatureF,Mean TemperatureF,Min TemperatureF,Max Dew PointF,MeanDew PointF,Min DewpointF,Max Humidity, Mean Humidity, Min Humidity, Max Sea Level PressureIn, Mean Sea Level PressureIn, Min Sea Level PressureIn, Max VisibilityMiles, Mean VisibilityMiles, Min VisibilityMiles, Max Wind SpeedMPH, Mean Wind SpeedMPH, Max Gust SpeedMPH,PrecipitationIn, CloudCover, Events, WindDirDegrees
2012-12-1,59,46,32,54,45,31,94,86,77,30.02,29.86,29.75,7,3,0,13,6,,0.00,7,Fog,159
2012-12-2,52,46,39,48,44,38,95,91,80,30.03,29.93,29.85,5,1,0,17,6,18,0.00,7,Fog,181
2012-12-3,69,52,36,58,44,29,92,72,44,30.04,29.79,29.64,10,7,0,25,14,34,0.00,4,Fog,232
2012-12-4,60,44,29,29,24,17,80,53,19,30.35,30.19,30.05,10,10,10,13,7,16,0.00,0,,315
2012-12-5,48,36,24,34,26,19,81,62,46,30.38,30.18,29.96,10,10,10,17,9,22,0.00,0,,129
2012-12-6,50,44,39,41,35,30,84,65,47,29.98,29.92,29.87,10,10,10,20,11,24,0.00,6,Rain,253
2012-12-7,43,38,34,34,30,27,87,69,53,29.99,29.94,29.89,10,10,10,12,6,,0.00,6,,24
2012-12-8,39,30,21,33,27,17,92,75,62,30.02,29.97,29.92,10,9,1,13,6,,0.01,3,Snow,85
2012-12-9,38,29,20,36,27,14,94,85,74,29.98,29.89,29.83,10,6,0,30,11,39,0.06,8,Rain-Snow,245
2012-12-10,31,22,12,14,11,5,78,67,40,30.03,29.96,29.90,10,10,10,21,13,28,0.00,3,,269
2012-12-11,43,30,17,26,20,11,84,68,47,30.02,29.95,29.88,10,10,10,23,9,26,0.00,3,,228
2012-12-12,52,38,25,24,19,16,81,53,24,30.04,30.01,29.96,10,10,10,29,14,36,0.03,0,,185
2012-12-13,51,38,25,23,19,16,81,51,30,30.09,30.03,29.98,10,10,10,18,12,23,0.00,0,,214
2012-12-14,52,35,18,42,27,16,94,73,43,30.09,29.93,29.69,10,10,5,15,5,18,0.05,2,Rain,143
2012-12-15,48,42,34,45,40,32,97,92,78,29.68,29.55,29.46,10,8,2,24,13,28,0.39,8,Rain,212
2012-12-16,34,30,27,32,29,25,99,91,83,29.79,29.74,29.66,10,7,2,15,10,20,0.00,8,,322
2012-12-17,31,27,23,30,25,22,98,93,86,29.78,29.72,29.67,10,7,4,8,4,,0.00,8,,53
2012-12-18,33,30,27,32,30,27,99,94,89,29.86,29.66,29.45,10,5,2,15,8,25,0.00,6,,289
2012-12-19,33,29,25,32,30,26,100,98,93,29.97,29.87,29.71,4,3,0,21,7,26,0.12,5,Snow,88
2012-12-20,31,30,27,31,29,27,99,97,96,29.69,29.68,29.65,1,1,1,31,23,36,0.00,8,Snow,3
2012-12-21,,,,,,,,,,,,,,,,,,,,,,
2012-12-22,,,,,,,,,,,,,,,,,,,,,,
2012-12-23,,,,,,,,,,,,,,,,,,,,,,
2012-12-24,,,,,,,,,,,,,,,,,,,,,,
2012-12-25,,,,,,,,,,,,,,,,,,,,,,
2012-12-26,,,,,,,,,,,,,,,,,,,,,,
2012-12-27,,,,,,,,,,,,,,,,,,,,,,
2012-12-28,25,20,16,23,20,15,96,93,89,30.04,29.98,29.93,7,4,1,15,5,18,0.00,8,Snow,333
2012-12-29,17,10,2,16,9,0,95,89,80,30.21,30.15,30.04,10,6,2,16,10,18,0.00,4,Snow,280
2012-12-30,34,17,0,27,15,-2,95,85,71,30.24,30.11,29.96,10,9,5,20,7,,0.00,0,,183
2012-12-31,22,14,5,18,11,0,90,79,72,30.26,30.17,30.05,10,10,10,17,11,22,0.00,3,,344